Paynesville, MN

9:46 PM CDT on April 30, 2017 (GMT -0500)
Paynesville

Weather History for KPEX - March, 2014

Change the Weather History Date:

Tuesday, March 4, 2014

  Actual Average (KLJF) Record (KLJF)
Temperature  
Mean Temperature 10 °F -  
Max Temperature 15 °F 35 °F 60 °F (1983)
Min Temperature 5 °F 16 °F -12 °F (1952)
Degree Days  
Heating Degree Days 55    
Moisture  
Dew Point 3 °F    
Average Humidity 73    
Maximum Humidity 84    
Minimum Humidity 64    
Precipitation  
Precipitation 0.00 in - - ()
Sea Level Pressure  
Sea Level Pressure 30.17 in    
Wind  
Wind Speed 3 mph (ENE)    
Max Wind Speed 12 mph    
Max Gust Speed -    
Visibility 9 miles    
Events Snow    
Averages and records for this station are not official NWS values.
T = Trace of Precipitation, MM = Missing Value Source: NWS Daily Summary

Daily Weather History Graph

Daily Weather History Graph

Search for Another Location

Airport or City:

Trip Planner

Search our weather history database for the weather conditions in past years. The results will help you decide how hot, cold, wet, or windy it might be!

Date:

Astronomy

Mar. 04, 2014 Rise Set
Actual Time 6:51 AM CST 6:10 PM CST
Civil Twilight 6:22 AM CST 6:39 PM CST
Nautical Twilight 5:48 AM CST 7:14 PM CST
Astronomical Twilight 5:13 AM CST 7:48 PM CST
Moon 8:26 AM CST (3/4) 10:32 PM CST (3/4)
Length of Visible Light 12h 17m
Length of Day
11h 18m
Waxing Crescent, 15% of the Moon is Illuminated
Mar 4
Waxing Crescent
Mar 8
First Quarter
Mar 16
Full
Mar 23
Last Quarter
Mar 30
New

Hourly Weather History & Observations

Time (CST) Temp. Windchill Dew Point Humidity Pressure Visibility Wind Dir Wind Speed Gust Speed Precip Events Conditions
12:13 AM 6.6 °F - 1.2 °F 79% 30.17 in 10.0 mi Calm Calm - N/A Snow Light Snow
12:32 AM 6.6 °F - 1.4 °F 79% 30.16 in 10.0 mi Calm Calm - N/A   Overcast
12:52 AM 6.6 °F - 1.4 °F 79% 30.16 in 10.0 mi Calm Calm - N/A   Overcast
1:13 AM 6.6 °F - 1.8 °F 80% 30.16 in 10.0 mi Calm Calm - N/A   Overcast
1:32 AM 6.6 °F - 1.9 °F 81% 30.16 in 10.0 mi Calm Calm - N/A Snow Light Snow
1:52 AM 6.6 °F - 1.9 °F 81% 30.15 in 10.0 mi Calm Calm - N/A Snow Light Snow
2:12 AM 6.4 °F - 1.8 °F 81% 30.16 in 7.0 mi Calm Calm - N/A Snow Light Snow
2:32 AM 6.3 °F - 1.6 °F 81% 30.15 in 5.0 mi Calm Calm - N/A Snow Light Snow
2:52 AM 6.3 °F - 1.8 °F 82% 30.15 in 7.0 mi Calm Calm - N/A Snow Light Snow
3:11 AM 6.3 °F - 1.9 °F 82% 30.15 in 7.0 mi Calm Calm - N/A Snow Light Snow
3:32 AM 5.9 °F - 1.9 °F 84% 30.13 in 7.0 mi Calm Calm - N/A Snow Light Snow
3:52 AM 5.9 °F - 1.9 °F 84% 30.14 in 7.0 mi Calm Calm - N/A Snow Light Snow
4:12 AM 5.9 °F - 1.9 °F 84% 30.13 in 4.0 mi Calm Calm - N/A Snow Light Snow
4:32 AM 5.9 °F - 1.9 °F 84% 30.14 in 10.0 mi Calm Calm - N/A Snow Light Snow
4:52 AM 5.9 °F - 2.1 °F 84% 30.13 in 10.0 mi Calm Calm - N/A Snow Light Snow
5:12 AM 5.9 °F -4.5 °F 1.9 °F 84% 30.13 in 10.0 mi East 5.8 mph - N/A Snow Light Snow
5:32 AM 6.1 °F -0.9 °F 1.9 °F 83% 30.13 in 10.0 mi East 3.5 mph - N/A   Overcast
5:52 AM 6.1 °F - 1.8 °F 82% 30.14 in 10.0 mi Calm Calm - N/A   Overcast
6:12 AM 6.3 °F - 1.9 °F 82% 30.14 in 10.0 mi Calm Calm - N/A Snow Light Snow
6:31 AM 6.3 °F - 2.1 °F 83% 30.14 in 7.0 mi Calm Calm - N/A Snow Light Snow
6:52 AM 6.3 °F -2.6 °F 1.9 °F 82% 30.14 in 7.0 mi ENE 4.6 mph - N/A Snow Light Snow
7:12 AM 6.3 °F - 1.9 °F 82% 30.14 in 10.0 mi Calm Calm - N/A   Overcast
7:32 AM 6.3 °F -0.7 °F 1.9 °F 82% 30.14 in 10.0 mi ENE 3.5 mph - N/A   Overcast
7:52 AM 6.4 °F - 1.8 °F 81% 30.16 in 10.0 mi Calm Calm - N/A   Overcast
8:12 AM 6.8 °F -0.1 °F 2.1 °F 81% 30.16 in 10.0 mi ENE 3.5 mph - N/A Snow Light Snow
8:31 AM 7.0 °F -1.7 °F 2.3 °F 81% 30.15 in 10.0 mi East 4.6 mph - N/A   Overcast
8:52 AM 7.3 °F -4.1 °F 2.3 °F 80% 30.16 in 7.0 mi ENE 6.9 mph - N/A Snow Light Snow
9:12 AM 8.1 °F -2.0 °F 2.5 °F 78% 30.17 in 7.0 mi NE 5.8 mph - N/A Snow Light Snow
9:32 AM 8.4 °F -1.6 °F 2.5 °F 77% 30.17 in 10.0 mi NE 5.8 mph - N/A Snow Light Snow
9:52 AM 9.3 °F -2.8 °F 3.0 °F 76% 30.17 in 10.0 mi ENE 8.1 mph - N/A   Overcast
10:11 AM 9.5 °F -1.5 °F 3.0 °F 75% 30.15 in 7.0 mi NE 6.9 mph - N/A Snow Light Snow
10:32 AM 10.0 °F -3.7 °F 3.2 °F 74% 30.14 in 10.0 mi NE 10.4 mph - N/A   Overcast
10:52 AM 10.8 °F -2.0 °F 3.2 °F 72% 30.16 in 10.0 mi NE 9.2 mph - N/A   Overcast
11:12 AM 11.7 °F 1.1 °F 2.8 °F 68% 30.17 in 10.0 mi ENE 6.9 mph - N/A   Overcast
11:32 AM 12.0 °F 0.5 °F 3.0 °F 67% 30.17 in 10.0 mi East 8.1 mph - N/A   Overcast
11:52 AM 12.7 °F 0.4 °F 3.4 °F 66% 30.16 in 10.0 mi East 9.2 mph - N/A   Overcast
12:12 PM 13.5 °F 3.3 °F 3.4 °F 64% 30.16 in 10.0 mi East 6.9 mph - N/A   Mostly Cloudy
12:32 PM 13.6 °F - 3.7 °F 65% 30.16 in 10.0 mi Calm Calm - N/A   Overcast
12:53 PM 15.1 °F 4.2 °F 5.0 °F 64% 30.15 in 10.0 mi ENE 8.1 mph - N/A   Mostly Cloudy
1:12 PM 14.4 °F 2.4 °F 4.1 °F 64% 30.15 in 10.0 mi NE 9.2 mph - N/A   Mostly Cloudy
1:32 PM 14.7 °F 2.1 °F 4.8 °F 65% 30.14 in 10.0 mi NE 10.4 mph - N/A   Mostly Cloudy
1:53 PM 14.0 °F 3.9 °F 4.5 °F 66% 30.14 in 10.0 mi ENE 6.9 mph - N/A   Mostly Cloudy
2:12 PM 13.8 °F 1.8 °F 4.3 °F 66% 30.13 in 10.0 mi ENE 9.2 mph - N/A   Mostly Cloudy
2:32 PM 14.0 °F 2.9 °F 4.1 °F 65% 30.14 in 10.0 mi ENE 8.1 mph - N/A   Overcast
2:53 PM 14.0 °F 0.5 °F 4.3 °F 65% 30.15 in 10.0 mi ENE 11.5 mph - N/A   Overcast
3:12 PM 14.5 °F 4.6 °F 5.2 °F 66% 30.14 in 7.0 mi East 6.9 mph - N/A Snow Light Snow
3:32 PM 14.5 °F 4.6 °F 5.7 °F 68% 30.16 in 4.0 mi East 6.9 mph - N/A Snow Light Snow
3:52 PM 14.0 °F 5.1 °F 5.7 °F 70% 30.16 in 4.0 mi East 5.8 mph - N/A Snow Light Snow
4:12 PM 14.5 °F 3.6 °F 5.7 °F 68% 30.15 in 7.0 mi East 8.1 mph - N/A   Mostly Cloudy
4:33 PM 14.0 °F 2.9 °F 4.6 °F 66% 30.16 in 10.0 mi East 8.1 mph - N/A   Scattered Clouds
4:52 PM 14.4 °F 5.5 °F 4.6 °F 65% 30.17 in 10.0 mi ENE 5.8 mph - N/A   Scattered Clouds
5:12 PM 14.4 °F 3.3 °F 4.5 °F 65% 30.18 in 10.0 mi ENE 8.1 mph - N/A   Mostly Cloudy
5:32 PM 14.2 °F 5.3 °F 4.5 °F 65% 30.18 in 10.0 mi ENE 5.8 mph - N/A   Mostly Cloudy
5:51 PM 13.8 °F 4.9 °F 4.3 °F 66% 30.18 in 10.0 mi NE 5.8 mph - N/A   Scattered Clouds
6:12 PM 13.6 °F 3.5 °F 4.1 °F 66% 30.19 in 10.0 mi ENE 6.9 mph - N/A   Mostly Cloudy
6:32 PM 13.5 °F 5.8 °F 4.1 °F 66% 30.20 in 10.0 mi NE 4.6 mph - N/A   Mostly Cloudy
6:52 PM 13.5 °F - 4.3 °F 67% 30.21 in 10.0 mi Calm Calm - N/A   Overcast
7:12 PM 13.3 °F - 4.1 °F 67% 30.21 in 10.0 mi Calm Calm - N/A   Overcast
7:32 PM 13.3 °F 7.3 °F 4.5 °F 68% 30.22 in 10.0 mi NE 3.5 mph - N/A   Overcast
7:53 PM 13.1 °F - 4.8 °F 70% 30.22 in 10.0 mi Calm Calm - N/A   Overcast
8:12 PM 13.1 °F 5.4 °F 4.8 °F 70% 30.23 in 10.0 mi NE 4.6 mph - N/A   Overcast
8:32 PM 13.1 °F - 4.8 °F 70% 30.23 in 10.0 mi Calm Calm - N/A   Overcast
8:53 PM 13.1 °F - 5.0 °F 70% 30.24 in 10.0 mi Calm Calm - N/A   Overcast
9:12 PM 13.1 °F - 4.8 °F 70% 30.24 in 10.0 mi Calm Calm - N/A   Overcast
9:32 PM 13.1 °F - 5.0 °F 70% 30.24 in 10.0 mi Calm Calm - N/A   Overcast
9:53 PM 13.5 °F - 4.8 °F 68% 30.26 in 10.0 mi Calm Calm - N/A   Overcast
10:12 PM 13.5 °F - 5.2 °F 70% 30.26 in 10.0 mi Calm Calm - N/A   Overcast
10:32 PM 13.6 °F 4.6 °F 5.0 °F 68% 30.26 in 10.0 mi NE 5.8 mph - N/A   Overcast
10:52 PM 13.8 °F 6.2 °F 5.0 °F 68% 30.26 in 10.0 mi ENE 4.6 mph - N/A   Overcast
11:12 PM 13.6 °F - 5.2 °F 69% 30.26 in 10.0 mi Calm Calm - N/A   Overcast
11:32 PM 13.6 °F - 5.4 °F 70% 30.26 in 10.0 mi Calm Calm - N/A   Overcast
11:52 PM 13.3 °F - 5.7 °F 72% 30.27 in 10.0 mi Calm Calm - N/A   Overcast